Shishmaref, AK

10:24 AM AKDT on October 20, 2017 (GMT -0800)
New Shishmaref

Weather History for PASH - May, 2013

Change the Weather History Date:

Saturday, May 18, 2013

  Actual Average Record
Temperature  
Mean Temperature 16 °F -  
Max Temperature 30 °F 32 °F 46 °F (2016)
Min Temperature 3 °F 24 °F 3 °F (2013)
Degree Days  
Heating Degree Days 48    
Moisture  
Dew Point 18 °F    
Average Humidity 86    
Maximum Humidity 93    
Minimum Humidity 72    
Precipitation  
Precipitation 0.00 in - - ()
Sea Level Pressure  
Sea Level Pressure 29.91 in    
Wind  
Wind Speed 14 mph (SSW)    
Max Wind Speed 25 mph    
Max Gust Speed 29 mph    
Visibility 5 miles    
Events      
Averages and records for this station are not official NWS values.
T = Trace of Precipitation, MM = Missing Value Source: NWS Daily Summary

Daily Weather History Graph

Daily Weather History Graph

Search for Another Location

Airport or City:

Trip Planner

Search our weather history database for the weather conditions in past years. The results will help you decide how hot, cold, wet, or windy it might be!

Date:

Astronomy

May. 18, 2013 Rise Set
Actual Time 5:07 AM AKDT 12:57 AM AKDT
Civil Twilight 3:33 AM AKDT 2:28 AM AKDT
Nautical Twilight Sun does not rise Sun does not rise
Astronomical Twilight Sun does not rise Sun does not rise
Moon 3:06 PM AKDT (5/18) 4:21 AM AKDT (5/18)
Length of Visible Light 22h 55m
Length of Day
19h 49m
First Quarter, 56% of the Moon is Illuminated
May 18
First Quarter
May 24
Full
May 31
Last Quarter
Jun 8
New
Jun 16
First Quarter

Hourly Weather History & Observations

Time (AKDT) Temp. Windchill Dew Point Humidity Pressure Visibility Wind Dir Wind Speed Gust Speed Precip Events Conditions
12:16 AM 5.0 °F -9.1 °F 1.4 °F 85% 29.93 in 10.0 mi SSW 9.2 mph - N/A   Scattered Clouds
12:36 AM 3.2 °F -11.3 °F -0.4 °F 85% 29.93 in 10.0 mi SSW 9.2 mph - N/A   Mostly Cloudy
12:56 AM 6.8 °F -6.9 °F -0.4 °F 72% 29.93 in 10.0 mi SSW 9.2 mph - N/A   Mostly Cloudy
1:16 AM 3.2 °F -10.3 °F -0.4 °F 85% 29.93 in 10.0 mi SSW 8.1 mph - N/A   Mostly Cloudy
1:36 AM 5.0 °F -8.1 °F 1.4 °F 85% 29.94 in 10.0 mi South 8.1 mph - N/A   Mostly Cloudy
1:56 AM 6.8 °F -6.9 °F 3.2 °F 85% 29.94 in 10.0 mi South 9.2 mph - N/A   Overcast
2:16 AM 8.6 °F -3.7 °F 3.2 °F 79% 29.93 in 10.0 mi South 8.1 mph - N/A   Overcast
2:36 AM 8.6 °F -4.7 °F 1.4 °F 73% 29.93 in 10.0 mi SSE 9.2 mph - N/A   Overcast
2:56 AM 10.4 °F -3.3 °F 3.2 °F 73% 29.93 in 10.0 mi SSE 10.4 mph - N/A   Overcast
3:16 AM 10.4 °F -3.3 °F 3.2 °F 73% 29.93 in 10.0 mi SSE 10.4 mph - N/A   Overcast
3:36 AM 10.4 °F -2.4 °F 5.0 °F 79% 29.92 in 10.0 mi SSE 9.2 mph - N/A   Mostly Cloudy
3:56 AM 12.2 °F -0.2 °F 6.8 °F 79% 29.92 in 10.0 mi SSE 9.2 mph - N/A   Overcast
4:16 AM 12.2 °F -4.3 °F 8.6 °F 85% 29.91 in 10.0 mi South 16.1 mph - N/A   Mostly Cloudy
4:36 AM 12.2 °F -5.8 °F 8.6 °F 85% 29.91 in 3.0 mi South 19.6 mph - N/A   Overcast
4:56 AM 14.0 °F -2.5 °F 10.4 °F 86% 29.91 in 1.5 mi South 17.3 mph - N/A   Overcast
5:16 AM 14.0 °F -1.4 °F 10.4 °F 86% 29.90 in 5.0 mi South 15.0 mph - N/A   Overcast
5:36 AM 12.2 °F -3.7 °F 10.4 °F 92% 29.90 in 3.0 mi South 15.0 mph - N/A   Overcast
5:56 AM 14.0 °F -2.0 °F 10.4 °F 86% 29.89 in 5.0 mi South 16.1 mph - N/A   Overcast
6:16 AM 14.0 °F -3.0 °F 10.4 °F 86% 29.89 in 1.0 mi South 18.4 mph - N/A   Overcast
6:36 AM 15.8 °F -1.5 °F 10.4 °F 79% 29.88 in 1.0 mi South 20.7 mph - N/A   Overcast
6:56 AM 14.0 °F -4.3 °F 10.4 °F 86% 29.87 in 1.0 mi South 21.9 mph - N/A   Overcast
7:16 AM 15.8 °F -1.1 °F 12.2 °F 86% 29.87 in 1.2 mi South 19.6 mph - N/A   Overcast
7:36 AM 15.8 °F -1.1 °F 12.2 °F 86% 29.87 in 1.2 mi South 19.6 mph - N/A   Overcast
7:56 AM 15.8 °F -1.9 °F 12.2 °F 86% 29.87 in 1.2 mi South 21.9 mph - N/A   Mostly Cloudy
8:16 AM 15.8 °F -1.5 °F 12.2 °F 86% 29.87 in 1.5 mi South 20.7 mph - N/A   Overcast
8:36 AM 15.8 °F 0.3 °F 10.4 °F 79% 29.87 in 7.0 mi South 16.1 mph - N/A   Mostly Cloudy
8:56 AM 15.8 °F 0.3 °F 10.4 °F 79% 29.88 in 9.0 mi South 16.1 mph - N/A   Mostly Cloudy
9:16 AM 17.6 °F 2.2 °F 15.8 °F 93% 29.88 in 3.0 mi South 17.3 mph - N/A   Overcast
9:36 AM 19.4 °F 4.1 °F 17.6 °F 93% 29.88 in 1.0 mi South 18.4 mph - N/A   Overcast
9:56 AM 19.4 °F 4.1 °F 14.0 °F 80% 29.88 in 1.0 mi South 18.4 mph - N/A   Overcast
10:16 AM 19.4 °F 5.5 °F 15.8 °F 86% 29.88 in 0.5 mi South 15.0 mph - N/A   Overcast
10:36 AM 19.4 °F 7.9 °F 17.6 °F 93% 29.87 in 1.2 mi South 10.4 mph - N/A   Overcast
10:56 AM 21.2 °F 7.8 °F 19.4 °F 93% 29.87 in 8.0 mi South 15.0 mph - N/A   Overcast
11:16 AM 23.0 °F 8.7 °F 21.2 °F 93% 29.87 in 1.8 mi South 18.4 mph - N/A   Overcast
11:36 AM 24.8 °F 11.1 °F 19.4 °F 80% 29.87 in 2.5 mi SSW 18.4 mph - N/A   Overcast
11:56 AM 24.8 °F 11.1 °F 21.2 °F 86% 29.87 in 5.0 mi South 18.4 mph - N/A   Overcast
12:16 PM 24.8 °F 9.6 °F 21.2 °F 86% 29.87 in 1.8 mi South 23.0 mph - N/A   Overcast
12:36 PM 24.8 °F 10.3 °F 21.2 °F 86% 29.87 in 2.5 mi South 20.7 mph 24.2 mph N/A   Overcast
12:56 PM 24.8 °F 10.7 °F 21.2 °F 86% 29.87 in 1.5 mi South 19.6 mph - N/A   Overcast
1:16 PM 26.6 °F 13.8 °F 23.0 °F 86% 29.87 in 1.5 mi South 17.3 mph - N/A   Overcast
1:36 PM 26.6 °F 13.1 °F 23.0 °F 86% 29.87 in 1.2 mi South 19.6 mph - N/A   Overcast
1:56 PM 26.6 °F 12.7 °F 24.8 °F 93% 29.87 in 1.2 mi South 20.7 mph - N/A   Overcast
2:16 PM 28.4 °F 14.4 °F 24.8 °F 86% 29.86 in 0.8 mi SSW 23.0 mph - N/A   Overcast
2:36 PM 28.4 °F 14.7 °F 24.8 °F 86% 29.86 in 0.8 mi SSW 21.9 mph - N/A   Overcast
2:56 PM 28.4 °F 13.8 °F 24.8 °F 86% 29.87 in 0.8 mi SSW 25.3 mph - N/A   Overcast
3:16 PM 28.4 °F 14.4 °F 26.6 °F 93% 29.87 in 0.8 mi SSW 23.0 mph - N/A   Overcast
3:36 PM 30.2 °F 16.8 °F 26.6 °F 86% 29.88 in 1.0 mi SSW 23.0 mph - N/A   Overcast
3:56 PM 30.2 °F 16.5 °F 26.6 °F 86% 29.88 in 0.8 mi SSW 24.2 mph - N/A   Overcast
4:16 PM 28.4 °F 13.8 °F 26.6 °F 93% 29.89 in 0.8 mi SSW 25.3 mph 28.8 mph N/A   Overcast
4:36 PM 28.4 °F 14.1 °F 26.6 °F 93% 29.89 in 1.0 mi SSW 24.2 mph 27.6 mph N/A   Overcast
4:56 PM 30.2 °F 16.5 °F 26.6 °F 86% 29.90 in 1.5 mi SSW 24.2 mph - N/A   Overcast
5:16 PM 30.2 °F 16.8 °F 26.6 °F 86% 29.90 in 1.5 mi SSW 23.0 mph - N/A   Overcast
5:36 PM 30.2 °F 16.8 °F 26.6 °F 86% 29.91 in 2.0 mi SSW 23.0 mph - N/A   Overcast
5:56 PM 30.2 °F 17.1 °F 26.6 °F 86% 29.91 in 2.5 mi SSW 21.9 mph - N/A   Overcast
6:16 PM 30.2 °F 18.1 °F 26.6 °F 86% 29.92 in 2.5 mi SSW 18.4 mph - N/A   Overcast
6:36 PM 30.2 °F 18.1 °F 26.6 °F 86% 29.92 in 5.0 mi SSW 18.4 mph - N/A   Overcast
6:56 PM 30.2 °F 18.5 °F 26.6 °F 86% 29.93 in 3.0 mi SSW 17.3 mph - N/A   Overcast
7:16 PM 30.2 °F 18.5 °F 26.6 °F 86% 29.94 in 3.0 mi SW 17.3 mph - N/A   Overcast
7:36 PM 30.2 °F 19.3 °F 28.4 °F 93% 29.95 in 5.0 mi SW 15.0 mph - N/A   Overcast
7:56 PM 30.2 °F 19.8 °F 26.6 °F 86% 29.95 in 10.0 mi SW 13.8 mph - N/A   Overcast
8:16 PM 30.2 °F 20.2 °F 26.6 °F 86% 29.95 in 10.0 mi SW 12.7 mph - N/A   Overcast
8:36 PM 30.2 °F 20.8 °F 26.6 °F 86% 29.96 in 10.0 mi SW 11.5 mph - N/A   Overcast
8:56 PM 30.2 °F 20.8 °F 26.6 °F 86% 29.97 in 10.0 mi SW 11.5 mph - N/A   Overcast
9:16 PM 30.2 °F 21.3 °F 26.6 °F 86% 29.97 in 10.0 mi SW 10.4 mph - N/A   Overcast
9:36 PM 30.2 °F 21.9 °F 26.6 °F 86% 29.98 in 10.0 mi SW 9.2 mph - N/A   Overcast
9:56 PM 30.2 °F 22.6 °F 26.6 °F 86% 29.99 in 10.0 mi SSW 8.1 mph - N/A   Overcast
10:16 PM 30.2 °F 23.4 °F 26.6 °F 86% 29.99 in 10.0 mi SSW 6.9 mph - N/A   Overcast
10:36 PM 30.2 °F 22.6 °F 26.6 °F 86% 29.99 in 10.0 mi SW 8.1 mph - N/A   Overcast
10:56 PM 30.2 °F 23.4 °F 26.6 °F 86% 30.00 in 10.0 mi SW 6.9 mph - N/A   Overcast
11:16 PM 28.4 °F 19.7 °F 26.6 °F 93% 30.01 in 10.0 mi SSW 9.2 mph - N/A   Overcast
11:36 PM 28.4 °F 21.2 °F 26.6 °F 93% 30.01 in 10.0 mi SSW 6.9 mph - N/A   Overcast
11:56 PM 28.4 °F 21.2 °F 26.6 °F 93% 30.02 in 10.0 mi SSW 6.9 mph - N/A   Overcast